[[{"header":{"parameterUnit":"m.s-1","parameterCategory":1,"la1":30.2991,"la2":30.254,"lo1":-89.0895,"lo2":-89.0444,"dy":0.0017,"dx":0.0017,"nx":28,"ny":28,"refTime":"2023-11-05T03:00:00:Z","depth":0,"parameterNumber":2,"parameterNumberName":"U-component_of_WINDS"},"data":[0,0,0,0,0,0,0,0,0,0,0,0,0,0,0,0,0,0,0,0,0,0,0,0,0,0,0,0,0,0,0,0,0,0,0,0,0,0,0,0,0,0,0,0,0,0,0,0,0,0,0,0,0,0,0,0,0,0,0.1222,0.1222,0,0.1257,0.1257,0.1258,0.1278,0.1278,0.1278,0.1278,0.1315,0.1316,0.1317,0,0,0,0,0,0,0,0,0,0,0,0,0,0.1173,0.1174,0.1222,0.1222,0.1223,0.1257,0.1257,0.1258,0.1278,0.1278,0.1278,0.1278,0.1315,0.1316,0.1317,0,0,0,0,0,0,0,0,0,0,0,0,0,0.12,0.1174,0.1222,0.1237,0.1239,0.1257,0.1257,0.1258,0.1278,0.1278,0.1278,0.1278,0.1314,0.1316,0.1317,0.1323,0,0,0.1321,0.1322,0,0,0,0,0,0,0,0,0.1198,0.1202,0.1234,0.1236,0.1238,0.1263,0.1254,0.128,0.1278,0.1263,0.1278,0.1278,0.1298,0.1301,0.1307,0.1325,0.1326,0.1321,0.1322,0.1323,0.1323,0,0,0,0,0,0,0,0.1196,0.12,0.1236,0.1235,0.1237,0.1242,0.1246,0.1259,0.1279,0.1264,0.1266,0.127,0.1299,0.1306,0.1308,0.1327,0.1321,0.1323,0.1323,0.1324,0.1351,0.1351,0,0,0,0,0,0,0.1192,0.1199,0.1235,0.1237,0.1218,0.1243,0.1247,0.1255,0.1279,0.1283,0.127,0.1271,0.1303,0.1306,0.1309,0.1317,0.1323,0.1324,0.1325,0.1351,0.1351,0.135,0,0,0,0,0,0,0.1191,0.1195,0.1233,0.1218,0.1223,0.1244,0.1252,0.1256,0.1262,0.1283,0.1287,0.1273,0.1303,0.1307,0.1319,0.1319,0.1325,0.1326,0.1351,0.1351,0.1351,0.1334,0,0,0,0,0,0,0.119,0.1195,0.1197,0.1218,0.1224,0.1243,0.1252,0.1256,0.1265,0.1266,0.1287,0.1291,0.1304,0.1317,0.1321,0.1321,0.1327,0.1351,0.1351,0.1351,0.1334,0.1333,0.1332,0,0,0,0,0,0.1188,0.1191,0.1197,0.1201,0.1228,0.1243,0.1246,0.1261,0.1264,0.1267,0.128,0.129,0.1318,0.1318,0.1322,0.1323,0.1351,0.1351,0.1351,0.1335,0.1333,0.1332,0,0,0,0,0,0,0.117,0.1194,0.1201,0.1212,0.1225,0.1246,0.125,0.1259,0.1271,0.1272,0.129,0.1295,0.1305,0.1315,0.1314,0.133,0.1336,0.1336,0.1322,0.1321,0.132,0.1317,0.1328,0,0,0,0,0,0.1168,0.1178,0.1198,0.1205,0.1212,0.1229,0.1237,0.1247,0.1261,0.1267,0.1281,0.1295,0.1307,0.1315,0.1327,0.1336,0.1341,0.1338,0.1337,0.1336,0.1336,0.1341,0.134,0.135,0.135,0.135,0,0,0.1162,0.1177,0.1182,0.1202,0.1214,0.1224,0.1234,0.1244,0.1252,0.1269,0.128,0.1291,0.1308,0.1318,0.1323,0.1327,0.1334,0.1336,0.1334,0.1336,0.1341,0.134,0.1339,0.135,0.135,0.135,0,0,0.1158,0.117,0.1177,0.1188,0.1205,0.1216,0.1218,0.1238,0.1245,0.1257,0.127,0.1279,0.13,0.1311,0.1319,0.1317,0.1327,0.1321,0.1314,0.1319,0.1318,0.1317,0.1317,0.1316,0.1321,0.1321,0.1321,0,0.1149,0.1164,0.1179,0.1189,0.1197,0.1212,0.1219,0.1229,0.1249,0.1255,0.1259,0.1284,0.1296,0.1309,0.1308,0.1315,0.1317,0.1319,0.1317,0.1316,0.1316,0.1315,0.1315,0.132,0.132,0.132,0.1321,0,0.1153,0.1163,0.1167,0.1185,0.1194,0.1202,0.1218,0.1226,0.1235,0.1246,0.1257,0.1273,0.1288,0.1291,0.1301,0.1305,0.1307,0.1313,0.132,0.1314,0.1314,0.1314,0.1319,0.1319,0.132,0.132,0,0,0.1139,0.1165,0.1166,0.1174,0.1194,0.1202,0.1211,0.1225,0.123,0.1244,0.1251,0.1267,0.1273,0.1283,0.1293,0.1297,0.1294,0.1303,0.1304,0.1301,0.1299,0.1294,0.1294,0.13,0.13,0.13,0.1298,0,0.1137,0.1153,0.1167,0.1178,0.1187,0.1201,0.1208,0.1221,0.1231,0.1241,0.1253,0.1264,0.1271,0.1276,0.1281,0.1294,0.1294,0.1294,0.1307,0.1308,0.1303,0.1294,0.1288,0.1285,0.1298,0.1298,0.1298,0,0.1137,0.1149,0.1161,0.1179,0.1183,0.119,0.1203,0.1212,0.1227,0.1234,0.1244,0.1254,0.1264,0.1269,0.1282,0.1282,0.1288,0.1295,0.1295,0.1297,0.1302,0.1295,0.1285,0.1284,0.1298,0.1298,0.1298,0,0.1125,0.1145,0.1154,0.1161,0.1182,0.1186,0.1195,0.1209,0.1217,0.1229,0.1233,0.1247,0.1254,0.1263,0.1277,0.128,0.1289,0.1295,0.1295,0.1294,0.1296,0.1296,0.1287,0.13,0.13,0.13,0.13,0,0.1122,0.1129,0.1149,0.1155,0.1162,0.1177,0.1185,0.1195,0.1207,0.1215,0.1228,0.1235,0.1253,0.1262,0.1273,0.1281,0.1285,0.1291,0.1293,0.1289,0.1288,0.1294,0.1294,0.13,0.13,0.13,0.13,0,0.111,0.1124,0.1135,0.1154,0.1159,0.1163,0.1179,0.1185,0.1196,0.1206,0.1209,0.1226,0.1237,0.1251,0.1268,0.1275,0.1282,0.1287,0.1277,0.1279,0.1277,0.1277,0.1271,0.1271,0.1284,0.1284,0.1284,0,0.1107,0.1113,0.1131,0.1137,0.1146,0.1155,0.1163,0.1178,0.1185,0.1201,0.1205,0.1217,0.1227,0.1245,0.1258,0.127,0.1275,0.1272,0.1277,0.1272,0.1274,0.1274,0.1274,0.1271,0.1271,0.127,0.127,0,0.11,0.1106,0.1117,0.1129,0.1137,0.1148,0.1159,0.1163,0.118,0.1188,0.1199,0.1207,0.1223,0.1234,0.1248,0.1257,0.1266,0.1269,0.1269,0.1265,0.1259,0.1262,0.1274,0.1269,0.1269,0.1269,0.1269,0.1269,0.1092,0.1097,0.1111,0.1122,0.1132,0.1142,0.1148,0.1159,0.1169,0.1183,0.1191,0.1202,0.1215,0.1234,0.1243,0.1251,0.1255,0.1255,0.1256,0.1255,0.1254,0.1258,0.1254,0.1254,0.1254,0.1254,0.1254,0,0.1085,0.1095,0.1105,0.1119,0.1128,0.1135,0.1148,0.1154,0.1163,0.1175,0.1185,0.1197,0.1208,0.1222,0.1234,0.1238,0.1243,0.1241,0.1241,0.1242,0.125,0.1249,0.1237,0.1237,0.1237,0.1237,0.1237,0.1237,0.1083,0.1092,0.1099,0.1113,0.1122,0.1133,0.1139,0.1148,0.1157,0.1171,0.118,0.1189,0.1201,0.1214,0.1224,0.1228,0.1232,0.1228,0.1233,0.1241,0.1242,0.1243,0.1242,0.1229,0.1229,0.1225,0.1225,0.1225]},{"header":{"parameterUnit":"m.s-1","parameterCategory":1,"la1":30.2991,"la2":30.254,"lo1":-89.0895,"lo2":-89.0444,"dy":0.0017,"dx":0.0017,"nx":28,"ny":28,"refTime":"2023-11-05T03:00:00:Z","depth":0,"parameterNumber":3,"parameterNumberName":"V-component_of_WINDS"},"data":[0,0,0,0,0,0,0,0,0,0,0,0,0,0,0,0,0,0,0,0,0,0,0,0,0,0,0,0,0,0,0,0,0,0,0,0,0,0,0,0,0,0,0,0,0,0,0,0,0,0,0,0,0,0,0,0,0,0,3.1629,3.1629,0,3.1615,3.1614,3.1614,3.1642,3.1643,3.1644,3.1645,3.1623,3.1621,3.162,0,0,0,0,0,0,0,0,0,0,0,0,0,3.1675,3.1674,3.1629,3.1629,3.1629,3.1615,3.1614,3.1614,3.1642,3.1643,3.1645,3.1646,3.1623,3.1621,3.162,0,0,0,0,0,0,0,0,0,0,0,0,0,3.1657,3.1673,3.1629,3.1641,3.1642,3.1615,3.1614,3.1614,3.1642,3.1643,3.1645,3.1646,3.1624,3.1622,3.1619,3.1577,0,0,3.1613,3.1612,0,0,0,0,0,0,0,0,3.1658,3.1655,3.164,3.164,3.1641,3.1632,3.1622,3.1601,3.1642,3.1642,3.1645,3.1647,3.1624,3.1622,3.1616,3.1576,3.1575,3.1612,3.1611,3.161,3.1609,0,0,0,0,0,0,0,3.1659,3.1656,3.1623,3.1639,3.164,3.1645,3.1644,3.1618,3.1625,3.1642,3.1644,3.1642,3.1625,3.1618,3.1616,3.1575,3.1612,3.161,3.1609,3.1608,3.1498,3.1497,0,0,0,0,0,0,3.166,3.1657,3.1624,3.1623,3.1654,3.1643,3.1642,3.1633,3.1625,3.1626,3.1641,3.1644,3.1621,3.1618,3.1615,3.1564,3.161,3.1608,3.1607,3.15,3.1498,3.1496,0,0,0,0,0,0,3.166,3.1656,3.1624,3.164,3.1637,3.1641,3.1631,3.1632,3.1626,3.1625,3.1625,3.1633,3.1622,3.1618,3.1587,3.1564,3.1607,3.1605,3.1502,3.1499,3.1497,3.1462,0,0,0,0,0,0,3.1662,3.1657,3.1642,3.164,3.1636,3.1598,3.163,3.1631,3.1623,3.1626,3.1618,3.1617,3.1623,3.159,3.1584,3.1561,3.1603,3.1504,3.1501,3.1498,3.1465,3.1459,3.1453,0,0,0,0,0,3.1663,3.1631,3.1641,3.1637,3.1618,3.1597,3.1594,3.1603,3.1621,3.1605,3.1604,3.1618,3.1567,3.1586,3.158,3.1556,3.1505,3.1501,3.1498,3.1468,3.146,3.1454,0,0,0,0,0,0,3.1628,3.1631,3.1642,3.1609,3.1603,3.1602,3.1582,3.1595,3.1581,3.1584,3.1594,3.1592,3.1558,3.1554,3.1575,3.1514,3.1539,3.1534,3.1518,3.1511,3.1505,3.1505,3.1601,0,0,0,0,0,3.1617,3.1602,3.1605,3.1575,3.1572,3.1578,3.1569,3.1576,3.1569,3.1566,3.1563,3.1553,3.1535,3.1523,3.1506,3.1466,3.1463,3.1446,3.144,3.1435,3.143,3.1407,3.1399,3.1484,3.1484,3.1485,0,0,3.1593,3.1593,3.1582,3.1568,3.1564,3.1546,3.1575,3.1555,3.154,3.1562,3.1533,3.153,3.152,3.1483,3.1467,3.1479,3.1406,3.143,3.1427,3.1424,3.1402,3.1394,3.1387,3.1482,3.1482,3.1483,0,0,3.154,3.1539,3.1514,3.151,3.1505,3.1509,3.1503,3.15,3.15,3.1472,3.1487,3.1469,3.1438,3.143,3.1422,3.1366,3.1377,3.136,3.1328,3.1306,3.1299,3.1293,3.1271,3.1264,3.1356,3.1356,3.1356,0,3.151,3.1486,3.1499,3.1478,3.1471,3.1492,3.1466,3.146,3.1448,3.1441,3.1456,3.1418,3.1412,3.1374,3.136,3.1354,3.1345,3.1361,3.1299,3.1293,3.1288,3.1268,3.126,3.1354,3.1354,3.1354,3.1354,0,3.1448,3.1431,3.1411,3.1402,3.1392,3.1368,3.1376,3.1365,3.1373,3.1375,3.1345,3.134,3.1322,3.1314,3.1321,3.1276,3.1283,3.1298,3.1323,3.1277,3.1258,3.1251,3.1351,3.1351,3.1352,3.1353,0,0,3.1371,3.1371,3.1363,3.1359,3.1355,3.1341,3.1317,3.1303,3.1291,3.1283,3.1262,3.1235,3.125,3.124,3.1247,3.1227,3.1182,3.1244,3.1244,3.1232,3.113,3.1117,3.1108,3.119,3.1188,3.1187,3.113,0,3.1317,3.128,3.1292,3.1252,3.1235,3.1256,3.1235,3.1229,3.123,3.1214,3.1215,3.1196,3.1217,3.1211,3.1193,3.1191,3.1161,3.1196,3.1168,3.1166,3.1168,3.1098,3.1085,3.1031,3.1123,3.1121,3.1121,0,3.125,3.1241,3.1201,3.1199,3.1193,3.1174,3.1161,3.1147,3.114,3.1142,3.1132,3.1142,3.1117,3.1143,3.1106,3.113,3.1119,3.1116,3.1115,3.1111,3.114,3.1091,3.1015,3.1006,3.1109,3.111,3.1111,0,3.1196,3.1174,3.1147,3.1143,3.1141,3.1127,3.1125,3.112,3.111,3.1098,3.1091,3.1076,3.1067,3.1053,3.1058,3.1077,3.102,3.1047,3.1019,3.1018,3.1004,3.1005,3.0923,3.1,3.1,3.1,3.1,0,3.1134,3.1108,3.1123,3.1106,3.1077,3.109,3.106,3.106,3.1055,3.1037,3.1053,3.1035,3.1044,3.1025,3.1029,3.0997,3.0993,3.0992,3.0993,3.099,3.099,3.0982,3.0985,3.0998,3.0999,3.0999,3.0999,0,3.1068,3.1077,3.1049,3.105,3.105,3.1028,3.1028,3.1011,3.1015,3.0991,3.0986,3.099,3.0969,3.0974,3.0951,3.0953,3.0913,3.0919,3.0916,3.0917,3.0888,3.089,3.0797,3.0785,3.0871,3.087,3.0869,0,3.1028,3.1009,3.1008,3.0999,3.0996,3.098,3.0971,3.0983,3.0972,3.0963,3.0946,3.0928,3.0914,3.0879,3.0878,3.086,3.0865,3.0834,3.0862,3.0859,3.0863,3.0863,3.0861,3.0828,3.0827,3.0826,3.0825,0,3.0954,3.0959,3.0947,3.0936,3.0925,3.0916,3.0909,3.0899,3.091,3.0897,3.0878,3.0867,3.0844,3.0825,3.0808,3.0803,3.0815,3.0817,3.0809,3.0805,3.0803,3.0802,3.0899,3.0818,3.0819,3.0819,3.082,3.082,3.0898,3.0882,3.088,3.0865,3.0861,3.0854,3.0838,3.084,3.0825,3.081,3.0817,3.0794,3.0786,3.0766,3.0759,3.074,3.0751,3.074,3.0737,3.0734,3.073,3.0808,3.0737,3.0737,3.0737,3.0737,3.0737,0,3.0824,3.0824,3.0811,3.0801,3.0789,3.0804,3.0797,3.0785,3.0765,3.0758,3.0745,3.0722,3.0703,3.0701,3.0683,3.0668,3.0672,3.0662,3.0663,3.0661,3.0721,3.0729,3.0659,3.0659,3.0659,3.0659,3.0659,3.0659,3.0784,3.0758,3.0763,3.0734,3.0733,3.0713,3.0707,3.07,3.0694,3.0669,3.0654,3.0654,3.0649,3.063,3.0613,3.0613,3.0604,3.0592,3.0593,3.0649,3.0657,3.0664,3.0672,3.059,3.059,3.0535,3.0534,3.0534]}]]